This is the latest recevied weather packets stored in our database for station/object DB0SMU-12. If no packets are shown the sender has not sent any weather packets the latest 1 day(s).
| Time | Temp. | Humidity | Pressure | Rain* | Wind** | Luminosity | Snow |
|---|---|---|---|---|---|---|---|
| 1777983177 | 20.56° C | 48% | 1008.4 hPa | 0 mm | 4.47 m/s, 265° | - | - |
| 1777982996 | 20.56° C | 48% | 1008.4 hPa | 0 mm | 4.02 m/s, 257° | - | - |
| 1777982815 | 21.11° C | 45% | 1008.4 hPa | 0 mm | 4.02 m/s, 269° | - | - |
| 1777982634 | 21.67° C | 43% | 1008.5 hPa | 0 mm | 1.79 m/s, 294° | - | - |
| 1777982454 | 22.22° C | 41% | 1008.4 hPa | 0 mm | 1.34 m/s, 255° | - | - |
| 1777982273 | 22.22° C | 42% | 1008.3 hPa | 0 mm | 1.34 m/s, 220° | - | - |
| 1777982091 | 22.22° C | 44% | 1008.5 hPa | 0 mm | 0 m/s | - | - |
| 1777982043 | 22.22° C | 44% | 1008.5 hPa | 0 mm | 1.34 m/s, 225° | - | - |
| 1777981862 | 22.22° C | 44% | 1008.5 hPa | 0 mm | 2.68 m/s, 220° | - | - |
| 1777981681 | 21.67° C | 46% | 1008.5 hPa | 0 mm | 2.68 m/s, 244° | - | - |
| 1777981500 | 21.67° C | 43% | 1008.4 hPa | 0 mm | 1.34 m/s, 298° | - | - |
| 1777981319 | 21.67° C | 43% | 1008.4 hPa | 0 mm | 0.89 m/s, 267° | - | - |
| 1777981138 | 21.67° C | 41% | 1008.4 hPa | 0 mm | 1.79 m/s, 297° | - | - |
| 1777980958 | 21.67° C | 40% | 1008.4 hPa | 0 mm | 1.34 m/s, 81° | - | - |
| 1777980777 | 21.67° C | 41% | 1008.5 hPa | 0 mm | 1.34 m/s, 337° | - | - |
| 1777980596 | 21.67° C | 43% | 1008.5 hPa | 0 mm | 1.34 m/s, 315° | - | - |
| 1777980415 | 21.67° C | 41% | 1008.4 hPa | 0 mm | 1.79 m/s, 319° | - | - |
| 1777980234 | 21.67° C | 41% | 1008.5 hPa | 0 mm | 0.89 m/s, 294° | - | - |
| 1777980053 | 21.67° C | 43% | 1008.5 hPa | 0 mm | 1.79 m/s, 300° | - | - |
| 1777979872 | 21.67° C | 42% | 1008.5 hPa | 0 mm | 1.34 m/s, 253° | - | - |
| 1777979691 | 21.67° C | 41% | 1008.5 hPa | 0 mm | 2.24 m/s, 242° | - | - |
| 1777979511 | 21.67° C | 40% | 1008.5 hPa | 0 mm | 1.79 m/s, 270° | - | - |
| 1777979330 | 21.67° C | 41% | 1008.6 hPa | 0 mm | 1.34 m/s, 305° | - | - |
| 1777979149 | 21.67° C | 42% | 1008.5 hPa | 0 mm | 1.34 m/s, 240° | - | - |
| 1777978967 | 21.67° C | 41% | 1008.5 hPa | 0 mm | 0.89 m/s, 271° | - | - |
* Rain latest hour (hover to see other rain measurements)
** Current wind speed in m/s (hover to see current wind gust speed)